Orbital Elements at Epoch 2459200.5 (2020-Dec-17.0) TDB
Reference: JPL 18 (heliocentric ecliptic J2000)
Element | Value | Uncertainty (1-sigma) | Units |
e | .05082290816154155 | 4.2867e-08 | |
a | 2.643973444462708 | 1.5593e-08 | au |
q | 2.509599024913225 | 1.1208e-07 | au |
i | .7253297788367167 | 4.0333e-06 | deg |
node | 285.77043869 | 0.00041334 | deg |
peri | 345.498600884892 | 0.00041664 | deg |
M | 171.2199432832818 | 5.2062e-05 | deg |
tp | 2458453.645661341912 (2018-Dec-01.14566134) | 0.00022712 | TDB |
period | 1570.305168668773 4.30 | 1.3892e-05 3.803e-08 | d yr |
n | .2292548016671118 | 2.0281e-09 | deg/d |
Q | 2.77834786401219 | 1.6386e-08 | au |
|
| | Orbit Determination Parameters
Additional Information
|